Simultaneous Nadir Overpasses (SNOs) Predictions

Prediction of SNOs between GOES-15 and TERRA Satellite Orbit:

Table of predicted SNOs for the next 14.0 days since TLE Epoch: 8/1/2012
Index Date Time (GOES-15) GOES-15 Lat,Lon TERRA Lat,Lon Distance(km) Time Diff (sec)
1 08/02/2012 19:18:34 0.18,-135.18 -0.39,-132.59 295.32 80
2 08/03/2012 07:42:37 -0.22,-135.16 -0.77,-137.77 296.78 80
3 08/05/2012 07:27:44 -0.21,-135.12 -0.16,-134.81 34.85 80
4 08/07/2012 07:15:31 -0.20,-135.07 0.47,-131.84 366.17 80
5 08/07/2012 19:39:26 0.24,-135.07 0.63,-137.00 219.31 80
6 08/09/2012 19:24:33 0.23,-135.01 -0.00,-134.04 111.43 80
7 08/10/2012 07:48:35 -0.27,-134.98 -1.15,-139.22 480.74 80
8 08/11/2012 19:12:19 0.23,-134.95 -0.58,-131.06 441.54 80
9 08/12/2012 07:36:21
